Location: Abundant Grace Fellowship
(35.0349°N, 90.0924°W)
Time: 08:29:36
(UTC+00:00)

Cosmos 1869 Rocket - Pass Details

Date: 18 January 2026
Orbit: 597 x 626 km, 82.5° (Epoch: 9 February)

Event Time Altitude Azimuth Distance (km) Brightness Sun altitude
Rises 00:22:37 0° 354° (N) 2,886 6.9 -14.0°
Reaches altitude 10° 00:24:52 10° 356° (N) 1,972 6.0 -14.4°
Maximum altitude 00:29:14 81° 83° (E) 620 3.4 -15.3°
Drops below altitude 10° 00:33:32 10° 171° (S) 1,941 6.2 -16.2°
Sets 00:35:43 0° 172° (S) 2,836 7.0 -16.6°
